Regional Weather Roundup
Issued by NWS Little Rock, AR

Home | Current Version | Previous Version | Graphics & Text | Print | Product List | Glossary On
Versions: 1 2 3 4 5 6 7 8 9 10 11 12 13 14 15 16 17 18 19 20 21 22 23 24 25 26 27 28 29 30 31 32 33 34 35 36 37 38 39 40 41 42 43 44 45 46 47 48 49 50
000
ASUS44 KLZK 261105
RWRLZK

WEATHER ROUNDUP FOR ARKANSAS
NATIONAL WEATHER SERVICE LITTLE ROCK AR
500 AM CST MON JAN 26 2015

NOTE: "FAIR" INDICATES FEW OR NO CLOUDS BELOW 12,000 FEET WITH NO
SIGNIFICANT WEATHER AND/OR OBSTRUCTIONS TO VISIBILITY.

ARZ001-003-010-029-261200-
NORTHWEST ARKANSAS

CITY           SKY/WX    TMP DP  RH WIND       PRES   REMARKS
FAYETTEVILLE   CLOUDY    34  29  82 NW5       30.11R WCI  30
FORT SMITH     CLOUDY    35  30  82 W8        30.15R WCI  29
HARRISON       CLOUDY    35  31  85 NW8       30.06F WCI  29
BENTONVILLE    MOCLDY    36  27  69 NW3       30.11S
ROGERS         CLOUDY    35  28  75 NW6       30.10S WCI  30
SILOAM SPGS    PTCLDY    30  21  69 W3        30.13S
HIGHFILL       CLEAR     30  26  85 NW5       30.10S WCI  25
$$

ARZ004-005-016-261200-
NORTH CENTRAL ARKANSAS

CITY           SKY/WX    TMP DP  RH WIND       PRES   REMARKS
BATESVILLE     CLEAR     36  27  69 NW5       30.09R
FLIPPIN        CLOUDY    37  27  65 NW5       30.07F
MTN HOME       CLOUDY    35  28  75 NW7G17    30.07R WCI  29
$$

ARZ040-041-261200-
WEST CENTRAL ARKANSAS

CITY           SKY/WX    TMP DP  RH WIND       PRES   REMARKS
MENA           CLEAR     37  32  81 W7        30.13R
MOUNT IDA      CLEAR     36  30  79 CALM      30.09R
$$

ARZ009-017-025-026-028-261200-
NORTHEAST ARKANSAS

CITY           SKY/WX    TMP DP  RH WIND       PRES   REMARKS
JONESBORO      CLOUDY    36  30  79 N9G18     30.07R
NEWPORT        PTCLDY    35  30  82 NW10      30.10R WCI  27
WALNUT RIDGE   MOCLDY    36  28  75 N10       30.07S
BLYTHEVILLE    CLOUDY    37  33  85 N12       30.06R
$$

ARZ022-023-033-042-044-261200-
CENTRAL ARKANSAS

CITY           SKY/WX    TMP DP  RH WIND       PRES   REMARKS
LITTLE ROCK    PTCLDY    39  29  67 NW5       30.10S
N LITTLE ROCK    N/A     39  33  81 N7        30.10S
JACKSONVILLE   CLOUDY    40  31  70 NW5       30.09S
SEARCY         CLEAR     38  30  73 NW7       30.11R
HOT SPRINGS    CLEAR     40  32  73 CALM      30.11R
RUSSELLVILLE   CLEAR     33  29  85 CALM      30.09S
CLINTON        CLOUDY    39  32  75 CALM      30.10F
$$

ARZ036-261200-
EAST ARKANSAS

CITY           SKY/WX    TMP DP  RH WIND       PRES   REMARKS
WEST MEMPHIS   CLOUDY    38  34  85 NW9       30.06R
$$

ARZ050-053-066-070-073-261200-
SOUTHWEST ARKANSAS

CITY           SKY/WX    TMP DP  RH WIND       PRES   REMARKS
ARKADELPHIA    FAIR      35  33  92 CALM      30.14R
CAMDEN         MIX PCPN  39  30  70 MISG      30.13R
TEXARKANA      CLEAR     40  32  73 NW10      30.15R
EL DORADO      CLEAR     40  31  70 NW8       30.13R
DE QUEEN       CLEAR     32  29  88 W6        30.14R WCI  26
$$

ARZ056-057-069-261200-
SOUTHEAST ARKANSAS

CITY           SKY/WX    TMP DP  RH WIND       PRES   REMARKS
PINE BLUFF     CLEAR     38  31  76 NW5       30.10R
STUTTGART      CLOUDY    41  30  65 N13       30.09S
MONTICELLO     CLOUDY    44  33  65 NW9       30.09R

$$





USA.gov is the U.S. government's official web portal to all federal, state and local government web resources and services.